Location: G�migny
(47.9646°N, 1.6950°E)
Time: 20:04:55
(UTC+00:00)

STARLINK-77 - Pass Details

Date: 23 October 2019
Orbit: 548 x 551 km, 53.0° (Epoch: 12 November)

Event Time Altitude Azimuth Distance (km) Brightness Sun altitude
Rises 19:12:45 0° 295° (WNW) 2,720 8.4 -24.4°
Reaches altitude 10° 19:15:00 10° 298° (WNW) 1,825 7.2 -24.8°
Enters shadow 19:18:19 52° 326° (NNW) 689 4.2 -25.3°
